Powrót do katalogu

STARLINK-31396

AktywnyŁącznośćVLEO
NORAD 59409·PAYLOAD·🇺🇸 United States

Wystrzelony Apr 5, 2024 z Cape Canaveral Space Force Station

Loading…

Następne Przeloty (najbliższe 24 godziny)

TLE

ŚwieżeSource: CelesTrak SupGP

Epoka: Sep 14, 2026, 22:23 UTC

1 59409C 24064M   26257.93312500  .00071417  00000+0  25862-2 0  2579
2 59409  43.0040  56.9211 0001700 269.6327 299.1056 15.27548810    11

Śledź STARLINK-31396 w czasie rzeczywistym z AllMySat

Download on the App Store